Content
SEND FEEDBACK

Daily
Averages
Monthly
Summary
United States of America

ST. LOUIS, MISSOURI


Home > North America > United States > Missouri
Elevation: 535 feet     Latitude: 38 45N     Longitude: 090 22W

WEATHER
 
SELECT A DAY
Number of Records: 200,489;   Date Range: 1/1/95 - 11/22/14
 
SHARE

PRINT THIS DATA

[ ← Previous Day ]
WEATHER ALMANAC - JANUARY 9, 2013
[ Next Day → ]
[ °C ]   °F
Weather ElementAverageHighLow
Temperature46 °F57.9 °F (12:54 pm)34 °F (6:54 am)
Dewpoint33.9 °F42.1 °F (2:54 am)28 °F (4:54 pm)
Humidity65.6 %96 % (6:54 am)37 % (1:54 pm)
Barometer30.39 in30.48 in (6:54 pm)30.22 in (1:54 am)
Wind Speed3.9 mph8.1 mph (2:54 am)
Weather ElementAverage
Visibility10 mi
Wind DirectionESE (113.5 °)

Weather ElementTotal
Precipitation---
Heating Degree Days19.1 (Base 65)
Averaged from 23 records on January 9, 2013
WEATHER CONDITIONS BREAKOUT
WIND DIRECTION BREAKOUT
WEATHER BY HOUR - JANUARY 9, 2013
[ °C ]   °F
Local TimeTemperatureDewpointHumidityBarometerVisibilityWind DirectionWind SpeedGust SpeedPrecipitationEventsConditions
1:54 AM48.0 °F39.9 °F74 %30.22 in10.0 miWSW (250°)5.8 mph0.00 inOvercast
2:54 AM50.0 °F42.1 °F74 %30.23 in10.0 miWSW (240°)8.1 mph0.00 inOvercast
3:54 AM50.0 °F42.1 °F74 %30.25 in10.0 miWSW (250°)6.9 mphOvercast
4:54 AM45.0 °F39.9 °F82 %30.27 in10.0 miWest (260°)5.8 mphPartly Cloudy
5:54 AM41.0 °F39.0 °F93 %30.29 in10.0 miCalmClear
6:54 AM34.0 °F33.1 °F96 %30.34 in10.0 miWSW (250°)5.8 mphScattered Clouds
7:54 AM37.0 °F35.1 °F93 %30.37 in10.0 miCalmScattered Clouds
8:54 AM42.8 °F39.2 °F87 %30.37 in10.0 miCalmMostly Cloudy
9:54 AM48.9 °F36.0 °F61 %30.41 in10.0 miWest (260°)3.5 mphMostly Cloudy
10:54 AM52.0 °F37.0 °F57 %30.42 in10.0 miCalmMostly Cloudy
11:54 AM57.0 °F34.0 °F42 %30.40 in10.0 miNorth (10°)6.9 mphMostly Cloudy
12:54 PM57.9 °F33.1 °F39 %30.38 in10.0 miNorth (350°)5.8 mphMostly Cloudy
1:54 PM57.9 °F32.0 °F37 %30.40 in10.0 miNNW (330°)6.9 mphMostly Cloudy
2:54 PM57.0 °F33.1 °F40 %30.40 in10.0 miCalmMostly Cloudy
3:54 PM54.0 °F33.1 °F45 %30.42 in10.0 miNE (40°)5.8 mphMostly Cloudy
4:54 PM51.1 °F28.0 °F41 %30.42 in10.0 miNNE (30°)4.6 mphMostly Cloudy
5:54 PM42.1 °F28.0 °F58 %30.45 in10.0 miCalmClear
6:54 PM39.9 °F28.0 °F63 %30.48 in10.0 miCalmClear
7:54 PM39.9 °F28.9 °F65 %30.47 in10.0 miEast (80°)5.8 mphClear
8:54 PM41.0 °F30.0 °F65 %30.48 in10.0 miESE (110°)3.5 mphClear
9:54 PM37.9 °F30.0 °F73 %30.48 in10.0 miCalmClear
10:54 PM37.0 °F28.9 °F73 %30.46 in10.0 miEast (80°)5.8 mphClear
11:54 PM37.0 °F30.0 °F76 %30.46 in10.0 miENE (70°)8.1 mphClear
Hourly data recorded from KSUS, located miles away from St. Louis, Missouri







STORIES FROM OUR PARTNERS